Wind_Speed
5 4 4 3 3 3 3 3 3 3 3 3 3 4 3 3 3 4 4 4 4 4 5 5 5 5 6 6 6 7 7 7 8 8 8 9 9 9 9 9 10 10 10
5 5 4 4 4 4 3 3 4 3 3 3 4 4 3 3 3 3 3 3 4 4 4 4 4 5 6 6 7 7 7 7 8 8 8 9 9 10 10 10 10 10 11
5 5 5 5 5 5 4 4 3 3 3 3 3 3 4 4 4 4 4 4 4 4 4 4 4 5 6 7 7 7 6 7 7 7 8 8 9 10 10 10 11 11 12
5 5 5 5 5 5 5 4 4 4 3 3 3 4 4 4 5 5 5 5 5 4 4 4 5 5 6 7 8 7 7 7 8 8 9 9 10 10 10 11 11 11 11
5 5 5 6 5 5 5 5 5 4 4 4 3 3 3 4 5 5 4 5 5 5 6 6 6 5 6 7 8 7 7 8 8 8 9 9 10 10 10 10 11 11 12
6 5 6 6 6 5 4 5 4 4 4 4 4 4 4 4 5 5 5 5 5 6 6 6 7 7 7 7 8 7 8 8 8 9 9 10 10 10 10 9 9 9 10
5 5 5 5 5 5 4 5 5 5 5 5 5 5 5 5 5 6 6 6 7 7 7 7 7 7 8 8 8 9 8 9 9 9 9 9 10 10 10 9 8 8 8
4 5 5 5 5 4 4 4 4 5 5 5 5 6 5 5 6 6 6 7 7 8 7 7 7 7 8 9 9 10 9 10 10 9 9 9 10 10 9 9 8 8 9
5 5 5 5 5 5 4 4 4 4 5 5 6 6 6 6 7 7 8 7 8 9 8 9 8 8 9 10 10 10 11 11 10 10 10 9 9 9 9 9 9 9 10
5 5 5 5 4 4 4 5 5 5 5 5 6 6 6 7 7 8 8 8 8 9 9 10 10 10 10 11 11 11 11 11 10 10 10 10 10 10 9 10 10 10 10
5 6 6 5 5 5 5 5 6 6 6 6 6 6 6 7 7 8 8 9 10 10 10 11 12 12 11 11 12 12 11 11 11 11 11 12 12 11 10 10 10 11 11
5 5 6 6 5 6 6 7 6 6 7 7 7 7 7 8 9 8 8 9 11 11 12 12 13 12 12 11 11 11 11 11 11 12 12 12 12 12 11 11 10 10 11
5 5 5 6 6 6 6 7 7 7 7 8 8 8 9 9 10 10 10 10 11 12 13 13 13 13 12 11 12 12 12 12 12 12 12 13 13 13 12 11 11 11 10
5 5 6 7 7 7 7 8 8 9 9 9 10 11 11 11 11 11 11 11 11 13 14 14 14 13 13 12 13 13 13 13 13 13 13 13 13 13 13 12 12 12 12
6 6 6 7 7 8 8 9 10 10 10 10 11 12 12 12 13 14 13 13 12 13 14 14 14 13 13 13 13 14 13 14 14 14 14 14 14 13 13 13 13 12 13
7 8 8 8 9 9 10 10 11 11 11 12 12 12 13 13 14 14 14 14 14 14 14 14 14 13 13 14 14 13 14 14 14 14 14 14 13 13 13 13 13 14 14
9 9 9 10 11 11 12 12 12 12 12 12 12 13 13 14 15 15 14 14 14 14 15 15 15 14 14 15 14 14 14 14 14 14 14 14 14 14 14 14 15 14 15
11 11 11 12 13 14 14 14 14 13 13 13 13 14 15 15 15 15 15 15 15 15 15 15 16 16 15 16 16 16 15 15 15 15 15 15 15 15 15 16 16 16 15
13 13 13 14 15 16 16 16 15 15 14 14 14 15 16 16 16 16 17 17 17 17 16 17 17 17 16 17 17 16 17 17 16 16 16 16 16 17 17 17 17 17 17
15 15 15 16 16 17 17 17 17 16 16 16 16 17 17 17 17 18 18 18 18 18 18 18 18 18 18 18 18 18 18 18 18 18 18 18 18 18 18 18 18 18 18
17 17 17 17 17 18 18 19 19 18 18 18 19 19 19 18 18 19 19 19 20 20 20 19 20 19 20 20 20 20 19 19 19 20 20 20 20 20 20 20 20 20 20
19 20 20 20 20 20 20 20 20 20 19 20 20 20 20 20 20 20 21 21 22 22 22 21 21 21 21 22 22 21 21 21 21 21 22 22 22 22 22 22 22 22 22
22 22 22 22 21 21 20 20 20 21 21 22 22 22 22 23 23 23 22 23 24 24 24 23 22 23 23 23 23 23 23 24 23 23 23 24 24 24 24 23 23 23 24
23 23 23 23 22 22 22 21 22 22 22 23 23 24 25 25 25 25 25 26 26 26 25 25 25 25 25 25 25 25 25 26 26 25 25 25 25 25 25 25 25 25 25
24 23 23 24 23 23 23 23 23 24 24 24 25 26 26 27 27 27 27 28 28 28 27 28 27 27 27 27 27 27 27 27 26 26 26 26 26 26 27 27 27 26 26
24 25 25 24 24 24 25 25 25 26 26 26 27 27 28 28 28 29 29 29 29 29 29 29 29 29 29 29 28 28 28 28 28 27 27 27 28 28 28 28 28 28 28
Wind_Direction
72 75 62 55 48 30 22 22 20 18 7 359 2 4 6 0 344 323 306 297 309 304 295 294 292 298 303 303 297 301 300 298 292 295 294 292 295 287 278 276 275 273 273
68 66 60 55 46 32 23 12 8 4 359 4 3 0 1 5 350 332 325 322 323 320 310 309 305 312 315 313 307 304 301 299 296 296 293 293 294 287 278 277 275 276 276
63 58 53 46 37 28 21 10 359 349 357 360 360 357 357 358 349 343 337 338 337 328 318 322 326 321 315 312 310 310 303 298 297 294 291 293 294 291 284 278 277 276 277
63 53 44 39 36 31 24 19 11 14 17 3 1 2 357 350 342 345 341 336 332 326 325 332 333 334 331 323 317 311 306 306 300 297 293 293 294 291 285 280 277 275 276
57 48 43 39 39 34 27 23 23 30 23 20 10 358 354 349 347 349 340 335 334 334 337 338 334 331 332 324 319 315 314 316 312 307 301 299 298 293 290 288 280 279 278
53 49 46 40 37 37 30 26 20 19 15 10 2 354 347 347 352 352 346 339 333 331 331 330 327 324 327 325 325 323 317 317 318 316 310 303 302 297 291 289 284 283 285
48 43 36 38 43 39 32 25 17 13 6 360 354 352 350 352 353 339 328 331 333 334 333 328 329 325 319 320 322 318 313 313 314 313 312 311 310 306 296 293 288 281 285
42 36 38 37 30 22 15 10 8 8 3 355 353 358 356 356 349 344 337 338 336 332 336 338 333 329 324 319 316 314 312 312 313 310 309 312 312 311 303 294 292 292 290
42 35 29 22 18 13 11 7 2 356 353 356 360 359 359 358 351 346 346 344 339 334 333 335 334 329 324 322 318 315 313 311 312 309 309 311 312 311 307 302 297 293 289
30 22 14 10 8 9 5 2 358 351 345 351 356 353 354 348 343 341 341 339 335 332 334 333 329 324 321 318 317 317 315 311 311 312 309 306 305 306 303 301 296 289 285
19 20 17 8 359 350 347 347 349 344 345 345 344 344 343 339 335 337 336 333 330 328 325 328 327 322 320 319 317 316 316 314 313 310 307 304 303 304 300 298 293 286 284
6 6 9 4 356 349 342 337 335 339 344 343 342 341 336 334 332 331 327 328 329 326 322 323 324 321 317 316 317 315 314 315 313 309 307 305 304 302 299 296 296 291 288
344 345 351 351 350 346 339 337 331 332 331 331 332 327 327 329 329 324 323 323 322 319 318 318 321 318 316 314 312 310 311 311 311 309 305 306 303 301 299 296 297 292 289
329 333 333 333 335 335 335 333 329 322 322 324 324 323 323 324 326 323 319 317 316 316 315 316 316 313 314 312 310 309 308 308 311 309 306 304 303 302 299 298 298 293 292
314 315 320 322 322 324 327 325 323 319 317 318 319 319 319 317 317 320 319 318 315 317 316 314 314 313 313 313 313 309 304 302 304 306 305 304 304 302 298 297 297 297 294
305 305 308 310 311 312 314 318 318 316 310 310 313 314 314 314 313 315 316 318 319 318 316 314 312 313 312 313 315 313 308 301 302 304 305 303 302 301 301 300 299 298 294
298 300 302 303 304 306 306 310 312 311 308 309 309 309 309 311 312 313 314 316 316 314 312 312 311 309 306 309 313 315 312 307 305 305 305 304 303 304 303 302 303 301 298
293 295 298 299 298 299 301 303 304 304 303 302 303 304 306 308 310 311 310 311 314 314 312 309 308 308 306 307 308 310 309 308 307 305 305 304 303 302 301 299 299 299 299
293 293 296 295 293 294 296 298 298 299 298 299 300 301 302 303 305 308 307 308 309 308 307 307 307 306 305 305 305 305 305 304 304 303 301 300 300 299 298 296 296 295 295
290 293 295 294 294 294 293 295 294 295 295 295 295 297 299 299 301 303 303 303 303 304 304 306 307 306 303 303 303 302 302 302 302 301 299 297 296 296 295 294 293 292 293
289 291 293 294 294 294 292 292 291 291 292 291 292 295 297 299 300 300 299 298 299 300 300 302 303 302 302 302 302 300 299 300 299 298 297 296 295 293 292 292 291 290 290
286 288 291 292 293 294 292 290 289 289 288 289 292 293 295 296 297 297 297 297 297 297 298 298 299 300 300 299 300 298 298 298 297 295 294 294 293 291 290 289 289 287 288
285 285 287 289 289 291 291 289 287 287 288 289 290 291 293 294 296 294 296 297 296 296 296 297 298 299 299 298 298 297 297 297 296 293 292 291 291 290 289 287 286 286 287
282 283 284 286 286 287 288 287 287 289 289 290 291 291 291 292 294 295 295 295 296 295 295 296 296 296 296 296 296 296 296 296 294 292 291 290 289 288 286 286 287 286 286
283 284 284 286 286 287 288 288 288 288 288 288 288 289 290 291 293 294 294 293 294 293 293 295 294 293 294 294 294 295 296 296 294 293 291 290 289 288 286 284 285 285 285
282 285 286 287 288 288 289 290 289 288 288 288 288 289 289 290 291 292 291 291 291 291 290 291 292 292 292 293 294 295 295 295 293 292 290 289 289 288 287 285 285 285 284
Height
5895 5894 5894 5894 5893 5893 5892 5891 5891 5890 5889 5889 5888 5887 5886 5886 5885 5884 5883 5882 5881 5880 5879 5879 5878 5877 5876 5875 5874 5873 5872 5871 5870 5869 5868 5867 5866 5865 5864 5863 5863 5862 5862
5895 5895 5894 5894 5893 5892 5892 5891 5890 5890 5889 5888 5888 5887 5887 5886 5885 5883 5882 5881 5880 5879 5878 5877 5877 5876 5875 5874 5873 5872 5870 5869 5868 5867 5866 5865 5864 5863 5862 5861 5860 5860 5859
5896 5895 5894 5894 5893 5892 5891 5890 5890 5889 5889 5888 5888 5887 5886 5885 5884 5883 5882 5881 5879 5878 5877 5877 5876 5875 5874 5873 5872 5870 5868 5867 5866 5865 5864 5863 5862 5861 5859 5858 5858 5857 5856
5896 5895 5894 5893 5892 5891 5891 5890 5889 5888 5888 5888 5887 5887 5886 5885 5884 5882 5881 5880 5878 5877 5876 5876 5875 5874 5873 5872 5871 5869 5867 5866 5864 5863 5862 5861 5859 5858 5857 5856 5855 5854 5853
5896 5895 5894 5893 5892 5891 5891 5890 5889 5889 5888 5888 5887 5886 5885 5884 5883 5882 5881 5879 5878 5877 5876 5875 5874 5873 5872 5871 5869 5868 5866 5864 5863 5861 5860 5858 5857 5855 5854 5853 5852 5851 5850
5896 5895 5894 5893 5892 5891 5891 5890 5889 5889 5888 5887 5887 5886 5885 5884 5883 5881 5880 5879 5878 5876 5875 5874 5873 5872 5870 5869 5867 5866 5864 5863 5861 5859 5858 5856 5855 5853 5851 5850 5849 5848 5847
5896 5895 5894 5893 5892 5891 5891 5890 5889 5889 5888 5887 5886 5885 5884 5883 5882 5881 5879 5878 5877 5875 5874 5873 5871 5870 5869 5867 5866 5864 5862 5861 5859 5857 5856 5854 5853 5851 5849 5848 5847 5846 5845
5896 5895 5894 5893 5892 5891 5891 5890 5889 5888 5887 5887 5886 5885 5884 5883 5882 5880 5879 5877 5875 5874 5873 5871 5870 5869 5867 5866 5864 5862 5860 5858 5857 5855 5853 5852 5850 5848 5847 5846 5844 5843 5842
5896 5895 5894 5893 5892 5891 5890 5889 5888 5888 5887 5886 5885 5885 5884 5882 5881 5880 5878 5876 5875 5873 5872 5870 5869 5867 5866 5864 5862 5860 5858 5856 5855 5853 5851 5849 5848 5846 5845 5843 5842 5841 5840
5896 5895 5894 5893 5892 5891 5890 5889 5888 5887 5886 5886 5885 5884 5883 5882 5880 5879 5877 5875 5874 5872 5870 5869 5867 5866 5864 5862 5860 5858 5856 5854 5852 5851 5849 5847 5845 5844 5842 5841 5839 5838 5837
5896 5895 5894 5892 5891 5891 5890 5889 5887 5887 5886 5885 5884 5883 5881 5880 5879 5877 5876 5874 5872 5870 5869 5867 5865 5863 5861 5860 5858 5856 5854 5852 5850 5848 5846 5845 5843 5841 5839 5838 5837 5835 5834
5896 5894 5893 5892 5891 5890 5889 5888 5887 5886 5885 5884 5883 5881 5880 5879 5877 5876 5874 5873 5871 5869 5867 5865 5863 5861 5859 5857 5855 5854 5852 5850 5848 5846 5844 5842 5840 5838 5837 5835 5834 5833 5831
5895 5894 5893 5892 5890 5889 5888 5887 5886 5885 5884 5883 5881 5880 5879 5877 5876 5874 5872 5871 5869 5867 5865 5863 5861 5859 5856 5854 5853 5851 5849 5847 5845 5843 5841 5839 5837 5836 5834 5832 5831 5830 5828
5894 5893 5892 5891 5889 5888 5887 5886 5885 5883 5882 5881 5879 5878 5877 5875 5874 5872 5870 5868 5867 5865 5863 5861 5858 5856 5854 5852 5850 5848 5846 5844 5842 5841 5839 5837 5835 5833 5831 5829 5828 5826 5825
5893 5892 5891 5889 5888 5887 5886 5884 5883 5881 5880 5879 5877 5876 5874 5872 5871 5869 5868 5866 5864 5862 5860 5858 5856 5853 5851 5849 5847 5845 5843 5841 5839 5837 5835 5833 5831 5830 5828 5826 5825 5823 5821
5891 5890 5889 5888 5886 5885 5883 5882 5880 5879 5877 5876 5874 5873 5871 5869 5868 5866 5864 5863 5861 5859 5857 5855 5853 5850 5848 5846 5844 5841 5839 5837 5836 5834 5832 5830 5828 5826 5825 5823 5821 5819 5818
5889 5888 5887 5885 5884 5882 5881 5879 5878 5876 5874 5873 5871 5870 5868 5866 5864 5862 5861 5859 5857 5856 5853 5851 5849 5847 5844 5842 5840 5838 5836 5834 5832 5830 5828 5827 5825 5823 5821 5819 5817 5816 5814
5886 5885 5883 5882 5881 5879 5877 5876 5874 5873 5871 5869 5868 5866 5864 5863 5861 5859 5857 5855 5853 5851 5849 5847 5845 5843 5840 5839 5837 5834 5832 5830 5828 5826 5824 5823 5821 5819 5817 5815 5813 5812 5810
5883 5881 5880 5878 5877 5875 5873 5872 5870 5869 5867 5865 5864 5862 5860 5859 5857 5855 5853 5851 5849 5847 5845 5843 5841 5839 5837 5835 5832 5831 5828 5826 5824 5822 5820 5818 5816 5815 5813 5811 5809 5807 5805
5878 5877 5876 5874 5872 5871 5869 5867 5866 5864 5863 5861 5860 5858 5856 5854 5853 5851 5849 5847 5845 5843 5841 5839 5837 5835 5833 5830 5828 5826 5824 5822 5820 5818 5816 5813 5812 5810 5808 5806 5804 5802 5801
5874 5872 5870 5869 5868 5866 5865 5863 5861 5860 5858 5856 5855 5853 5851 5849 5847 5845 5844 5842 5839 5838 5836 5834 5832 5830 5828 5825 5823 5821 5819 5817 5814 5812 5810 5808 5806 5805 5803 5801 5799 5797 5795
5869 5867 5866 5864 5863 5861 5860 5858 5856 5854 5853 5851 5849 5848 5846 5844 5842 5840 5838 5836 5834 5832 5830 5828 5826 5824 5822 5820 5817 5815 5813 5811 5809 5807 5805 5803 5801 5799 5797 5795 5793 5791 5789
5863 5861 5860 5858 5857 5855 5853 5851 5850 5848 5847 5845 5843 5842 5840 5838 5836 5834 5832 5830 5827 5825 5824 5822 5820 5818 5816 5813 5811 5808 5806 5804 5802 5800 5798 5796 5794 5792 5790 5788 5787 5785 5783
5856 5855 5854 5852 5851 5849 5847 5845 5844 5842 5840 5839 5837 5836 5834 5832 5830 5827 5825 5823 5821 5818 5816 5815 5813 5811 5808 5806 5804 5802 5800 5797 5795 5793 5791 5789 5787 5785 5783 5781 5779 5778 5776
5850 5848 5847 5846 5844 5843 5841 5839 5837 5836 5834 5832 5830 5828 5826 5824 5822 5820 5818 5816 5813 5811 5809 5807 5805 5803 5801 5798 5796 5794 5792 5790 5787 5785 5783 5781 5779 5778 5775 5774 5772 5770 5768
5842 5842 5840 5839 5837 5836 5834 5832 5830 5829 5827 5825 5823 5821 5819 5816 5814 5812 5810 5808 5806 5804 5801 5799 5797 5795 5793 5790 5788 5786 5784 5781 5779 5777 5775 5773 5771 5769 5768 5766 5764 5762 5760